Simultaneous Nadir Overpasses (SNOs) Predictions

Prediction of SNOs over PacNW region [( 10.00, 139.50) to ( 22.70, 165.60)] between AQUA and NPP Satellites:

Table of predicted SNOs over PacNW region for the next 30.0 days since TLE Epoch: 1/29/2016
Index Date (AQUA) Time (AQUA) AQUA Lat,Lon Date (NPP) Time (NPP) NPP Lat,Lon Distance(km) Time Diff (sec)
1 01/30/2016 15:09:58 22.59, 159.83 01/30/2016 15:12:47 23.18, 157.23 275.11 169
2 02/02/2016 03:31:48 22.69, 147.51 02/02/2016 03:28:54 22.33, 145.86 173.66 174
3 02/07/2016 15:59:23 22.59, 147.49 02/07/2016 16:02:51 25.11, 145.05 374.31 208
4 02/10/2016 02:42:19 22.68, 159.89 02/10/2016 02:38:49 25.15, 157.86 343.92 210
5 02/15/2016 15:09:52 22.58, 159.88 02/15/2016 15:12:30 23.15, 157.26 275.90 158
6 02/18/2016 03:31:40 22.67, 147.56 02/18/2016 03:28:36 22.31, 145.91 174.94 184
7 02/23/2016
